Location: Newark
(37.8333°N, 119.5000°W)
Time: 01:22:43
(UTC+00:00)

deb Explorer IX - All Passes

Search period start: 25 August 2019 00:00
Search period end: 04 September 2019 00:00
Orbit: 540 x 1110 km, 38.8° (Epoch: 23 August)

Date Brightness Start Highest point End Pass type
(mag) Time Alt. Az. Time Alt. Az. Time Alt. Az.
25 Aug - 00:10:43 10° WNW 00:17:36 71° SSW 00:24:56 10° ESE daylight
25 Aug - 01:58:32 10° W 02:04:39 30° SW 02:10:52 10° SSE daylight
25 Aug - 18:29:02 10° SSW 18:33:38 31° SE 18:38:57 10° E daylight
25 Aug - 20:14:40 10° WSW 20:20:22 80° SSE 20:27:05 10° E daylight
25 Aug - 22:01:34 10° W 22:07:52 82° N 22:15:03 10° E daylight
25 Aug - 23:48:42 10° WNW 23:55:26 70° SSW 00:02:45 10° ESE daylight
26 Aug - 01:36:28 10° W 01:42:30 30° SW 01:48:40 10° SSE daylight
26 Aug - 18:07:09 10° SSW 18:11:37 31° SSE 18:16:45 10° E daylight
26 Aug - 19:52:47 10° WSW 19:58:18 80° SSE 20:04:52 10° E daylight
26 Aug - 21:39:38 10° W 21:45:46 82° N 21:52:50 10° E daylight
26 Aug - 23:26:42 10° WNW 23:33:17 69° SSW 23:40:32 10° ESE daylight
27 Aug - 01:14:26 10° W 01:20:20 29° SW 01:26:27 10° SSE daylight
27 Aug - 17:45:17 10° SSW 17:49:35 31° SSE 17:54:34 10° E daylight
27 Aug - 19:30:54 10° WSW 19:36:15 81° SSE 19:42:39 10° E daylight
27 Aug - 21:17:42 10° W 21:23:40 82° N 21:30:36 10° E daylight
27 Aug - 23:04:42 10° W 23:11:08 68° SSW 23:18:19 10° ESE daylight
28 Aug - 00:52:25 10° W 00:58:10 28° SW 01:04:12 10° SSE daylight
28 Aug - 17:23:24 10° SSW 17:27:35 30° SSE 17:32:23 10° E daylight
28 Aug - 19:09:01 10° WSW 19:14:13 81° SSE 19:20:25 10° E daylight
28 Aug - 20:55:47 10° W 21:01:35 82° N 21:08:22 10° E daylight
28 Aug - 22:42:43 10° W 22:49:00 66° SSW 22:56:05 10° ESE daylight
29 Aug - 00:30:24 10° W 00:36:00 27° SW 00:41:56 10° SSE daylight
29 Aug - 17:01:32 10° SSW 17:05:35 30° SSE 17:10:14 10° E daylight
29 Aug - 18:47:09 10° WSW 18:52:11 82° SSE 18:58:12 10° E daylight
29 Aug - 20:33:54 10° W 20:39:30 82° N 20:46:08 10° E daylight
29 Aug - 22:20:47 10° W 22:26:52 65° SSW 22:33:50 10° ESE daylight
30 Aug - 00:08:25 10° W 00:13:51 26° SW 00:19:39 10° SSE daylight
30 Aug - 16:39:40 10° SSW 16:43:36 30° SSE 16:48:05 10° E daylight
30 Aug - 18:25:17 10° WSW 18:30:11 82° SSE 18:36:01 10° E daylight
30 Aug - 20:12:00 10° W 20:17:27 82° N 20:23:54 10° E daylight
30 Aug - 21:58:50 10° W 22:04:45 64° SSW 22:11:35 10° ESE daylight
30 Aug - 23:46:28 10° W 23:51:42 25° SW 23:57:21 10° SSE daylight
31 Aug - 16:17:47 10° SSW 16:21:38 30° SSE 16:25:57 10° E daylight
31 Aug - 18:03:26 10° WSW 18:08:11 83° SSE 18:13:50 10° E daylight
31 Aug - 19:50:07 10° W 19:55:24 82° N 20:01:41 10° E daylight
31 Aug - 21:36:54 10° W 21:42:39 62° SSW 21:49:19 10° ESE daylight
31 Aug - 23:24:32 10° W 23:29:33 24° SW 23:35:02 10° SSE daylight
01 Sep - 15:55:54 10° SSW 15:59:39 29° SSE 16:03:50 10° E daylight
01 Sep - 17:41:35 10° WSW 17:46:11 83° SSE 17:51:39 10° E daylight
01 Sep - 19:28:14 10° W 19:33:21 82° N 19:39:27 10° E daylight
01 Sep - 21:14:59 10° W 21:20:33 61° SSW 21:27:04 10° ESE daylight
01 Sep - 23:02:37 10° W 23:07:26 23° SW 23:12:42 10° SSE daylight
02 Sep - 15:34:01 10° SSW 15:37:41 29° SSE 15:41:45 10° E daylight
02 Sep - 17:19:43 10° WSW 17:24:12 84° S 17:29:29 10° E daylight
02 Sep - 19:06:23 10° W 19:11:20 82° N 19:17:14 10° E daylight
02 Sep - 20:53:05 10° W 20:58:28 59° SSW 21:04:48 10° ESE daylight
02 Sep - 22:40:44 10° W 22:45:19 22° SW 22:50:21 10° SSE daylight
03 Sep - 15:12:06 10° SSW 15:15:44 29° SSE 15:19:41 10° E daylight
03 Sep - 16:57:51 10° WSW 17:02:14 85° SSE 17:07:20 10° E daylight
03 Sep - 18:44:30 10° W 18:49:19 82° N 18:55:02 10° E daylight
03 Sep - 20:31:12 10° W 20:36:24 57° SSW 20:42:32 10° SE daylight
03 Sep - 22:18:52 10° W 22:23:12 21° SW 22:27:59 10° SSE daylight
